COSMOS 1085

Satellite information

Favourite Embed

Satellite Type and Status

PAYLOADIN ORBIT

Key statistics

Satellite COSMOS 1085 at a glance.

Uptime

17082

Days in orbit

Revolutions

≈ 12.5

Per day

Orbit

LEO

Low Earth Orbit

Inclination

74.0

Latest

Satellite identification and parameters

Extended collection of information and parameters for COSMOS 1085.

Object identification

Identified? True

Debris? False

Object name: COSMOS 1085

International designator: 1979-024E

Object number (NORAD): 11300

Object ID (CCSDS): 11300

Country: COMMONWEALTH OF INDEPENDENT STATES (CIS)

Current information (Y/N): Y

RCS size: MEDIUM

Orbital parameters

Period: 115.636 minutes

Inclination: 74.0347 deg

SMA: 7862.393 km

Apoapsis: 1503.52 km

Periapsis: 1464.995 km

RAAN: 54.4191 deg

Eccentricy: 0.00244994

Argument of periapsis: 8.069 deg

Mean anomaly: 102.3897 deg

Mean motion: 12.45290486 rev/day

Mean motion (dot): 0.00000004 rev/day2

B* drag term: 0.00013657079 1/REarth

Two-line elements (TLE)

Creation date: Dec. 20, 2025, 3:40 a.m.

Reference frame: TEME

Reference center: EARTH

Epoch: Dec. 19, 2025, 10:04 p.m. UTC

TLE line 0: 0 COSMOS 1085

TLE line 1: 1 11300U 79024E 25353.91971385 .00000004 00000-0 13657-3 0 9997

TLE line 2: 2 11300 74.0347 54.4191 0024499 8.0690 102.3897 12.45290486125972

Live tracking on map

Real-time ground track for satellite COSMOS 1085.

In-orbit conjunctions

There are no conjunctions computed for COSMOS 1085, at the moment. Check back to stay up to date, as we update our databases every day.

Go to all conjunctions

Associated space launch

Military communications satellites

COSMOS 1085 was lifted into orbit during the mission ‘Kosmos-3M | Strela-1M 169-176’, on board a Kosmos-3M space rocket.

The launch took place on March 15, 1979, 2:58 a.m. from 132/2.

For more information about the launch, click the button.

Launch to space Kosmos-3M | Strela-1M 169-176
Kosmos-3M | Strela-1M 169-176

Agency: N/A

Status: Launch Successful

Launch date: March 15, 1979, 2:58 a.m. UTC

Rocket: Kosmos-3M

Launch pad: 132/2

Location: Plesetsk Cosmodrome, Russian Federation

...

Latest news about this satellite

There are no fresh news available about this satellite. Check back as we update our databases every day.


Newsletter sign-up

Weekly statistics, charts and insights to help you stay on top of the space industry.